Weather History for Somerville, NJ

Change the Weather History Date:

Thursday, February 14, 2013

  Actual Average Record
Temperature  
Mean Temperature 36 °F -  
Max Temperature 45 °F 38 °F 66 °F (1946)
Min Temperature 26 °F 18 °F -5 °F (1979)
Degree Days  
Heating Degree Days 29    
Moisture  
Dew Point 29 °F    
Average Humidity 86    
Maximum Humidity 100    
Minimum Humidity 42    
Precipitation  
Precipitation 0.02 in - - ()
Sea Level Pressure  
Sea Level Pressure 29.87 in    
Wind  
Wind Speed 0 mph (NW)    
Max Wind Speed 6 mph    
Max Gust Speed -    
Visibility 5 miles    
Events Rain    
Averages and records for this station are not official NWS values.
T = Trace of Precipitation, MM = Missing Value Source: NWS Daily Summary

Daily Weather History Graph

Daily Weather History Graph

Search for Another Location

Airport:

Trip Planner

Search our weather history database for the weather conditions in past years. The results will help you decide how hot, cold, wet, or windy it might be!

Date:

Astronomy

Feb. 14, 2013 Rise Set
Actual Time 6:53 AM EST 5:32 PM EST
Civil Twilight 6:25 AM EST 6:00 PM EST
Nautical Twilight 5:53 AM EST 6:32 PM EST
Astronomical Twilight 5:21 AM EST 7:04 PM EST
Moon 8:52 AM EST (2/14) 10:35 PM EST (2/14)
Length of Visible Light 11h 35m
Length of Day
10h 39m
Waxing Crescent, 21% of the Moon is Illuminated
Feb 14
Waxing Crescent
Feb 17
First Quarter
Feb 25
Full
Mar 4
Last Quarter
Mar 11
New

Hourly Weather History & Observations

Time (EST) Temp. Windchill Dew Point Humidity Pressure Visibility Wind Dir Wind Speed Gust Speed Precip Events Conditions
12:18 AM 33.8 °F - 32.0 °F 93% 29.71 in 2.5 mi Calm Calm - 0.00 in Rain Light Rain
12:53 AM 33.1 °F - 33.1 °F 100% 29.72 in 2.5 mi Calm Calm - 0.01 in   Overcast
1:53 AM 33.1 °F - 32.0 °F 96% 29.75 in 2.5 mi Calm Calm - N/A   Overcast
2:05 AM 33.8 °F - 32.0 °F 93% 29.75 in 2.5 mi Calm Calm - N/A   Overcast
2:18 AM 33.8 °F - 32.0 °F 93% 29.76 in 3.0 mi Calm Calm - N/A   Overcast
2:34 AM 33.8 °F - 32.0 °F 93% 29.77 in 2.5 mi Calm Calm - N/A   Overcast
2:53 AM 33.1 °F - 32.0 °F 96% 29.78 in 3.0 mi Calm Calm - N/A   Overcast
3:31 AM 32.0 °F - 32.0 °F 100% 29.78 in 2.0 mi Calm Calm - N/A   Overcast
3:43 AM 32.0 °F - 32.0 °F 100% 29.78 in 1.8 mi Calm Calm - N/A   Overcast
3:53 AM 32.0 °F - 30.9 °F 96% 29.80 in 1.0 mi Calm Calm - N/A   Mostly Cloudy
4:01 AM 32.0 °F - 30.2 °F 93% 29.79 in 2.0 mi Calm Calm - N/A   Overcast
4:36 AM 32.0 °F - 30.2 °F 93% 29.81 in 1.8 mi Calm Calm - N/A   Scattered Clouds
4:44 AM 30.2 °F - 30.2 °F 100% 29.81 in 2.0 mi Calm Calm - N/A   Mostly Cloudy
4:53 AM 30.9 °F - 30.0 °F 96% 29.82 in 1.0 mi Calm Calm - N/A   Mist
4:59 AM 30.2 °F - 30.2 °F 100% 29.81 in 0.8 mi Calm Calm - N/A   Scattered Clouds
5:05 AM 30.2 °F - 30.2 °F 100% 29.81 in 2.0 mi Calm Calm - N/A   Mostly Cloudy
5:23 AM 30.2 °F - 30.2 °F 100% 29.82 in 3.0 mi Calm Calm - N/A   Overcast
5:36 AM 30.2 °F 26.7 °F 28.4 °F 93% 29.83 in 2.0 mi WNW 3.5 mph - N/A   Overcast
5:53 AM 30.0 °F - 28.9 °F 96% 29.85 in 2.5 mi Calm Calm - N/A   Mostly Cloudy
6:04 AM 28.4 °F - 28.4 °F 100% 29.84 in 3.0 mi Calm Calm - N/A   Mostly Cloudy
6:10 AM 30.2 °F - 28.4 °F 93% 29.84 in 2.5 mi Calm Calm - N/A   Scattered Clouds
6:17 AM 30.2 °F - 28.4 °F 93% 29.85 in 4.0 mi Calm Calm - N/A   Partly Cloudy
6:53 AM 28.9 °F - 27.0 °F 92% 29.88 in 3.0 mi Calm Calm - N/A   Clear
7:07 AM 28.4 °F - 28.4 °F 100% 29.88 in 2.5 mi Calm Calm - N/A   Clear
7:14 AM 28.4 °F - 28.4 °F 100% 29.89 in 2.5 mi Calm Calm - N/A   Partly Cloudy
7:33 AM 30.2 °F - 28.4 °F 93% 29.90 in 3.0 mi Calm Calm - N/A   Mostly Cloudy
7:53 AM 32.0 °F - 32.0 °F 100% 29.92 in 2.5 mi Calm Calm - N/A   Overcast
8:17 AM 33.8 °F - 32.0 °F 93% 29.92 in 3.0 mi Calm Calm - N/A   Mostly Cloudy
8:25 AM 33.8 °F - 32.0 °F 93% 29.92 in 3.0 mi Calm Calm - N/A   Scattered Clouds
8:53 AM 34.0 °F - 32.0 °F 92% 29.94 in 4.0 mi Calm Calm - 0.01 in   Clear
9:53 AM 39.0 °F 34.8 °F 32.0 °F 76% 29.95 in 9.0 mi Variable 5.8 mph - N/A   Clear
10:53 AM 41.0 °F 38.0 °F 27.0 °F 57% 29.95 in 10.0 mi Variable 4.6 mph - N/A   Clear
11:53 AM 43.0 °F 40.3 °F 26.1 °F 51% 29.95 in 10.0 mi NNW 4.6 mph - N/A   Clear
12:53 PM 43.0 °F 41.3 °F 26.1 °F 51% 29.93 in 10.0 mi Variable 3.5 mph - N/A   Clear
1:53 PM 45.0 °F 42.6 °F 27.0 °F 49% 29.94 in 10.0 mi Variable 4.6 mph - N/A   Clear
2:53 PM 45.0 °F 42.6 °F 26.1 °F 48% 29.94 in 10.0 mi Variable 4.6 mph - N/A   Clear
3:53 PM 45.0 °F 42.6 °F 26.1 °F 48% 29.94 in 10.0 mi Variable 4.6 mph - N/A   Clear
4:53 PM 44.1 °F - 21.9 °F 42% 29.96 in 10.0 mi North - - N/A   Clear
5:53 PM 39.9 °F - 24.1 °F 53% 29.95 in 10.0 mi Calm Calm - N/A   Clear
6:53 PM 35.1 °F - 25.0 °F 67% 29.98 in 10.0 mi Calm Calm - N/A   Clear
7:53 PM 30.9 °F - 25.0 °F 79% 29.99 in 10.0 mi Calm Calm - N/A   Clear
8:53 PM 28.9 °F - 25.0 °F 85% 29.99 in 10.0 mi Calm Calm - N/A   Clear
9:53 PM 28.9 °F - 25.0 °F 85% 30.00 in 10.0 mi Calm Calm - N/A   Clear
10:53 PM 27.0 °F - 24.1 °F 89% 30.00 in 10.0 mi Calm Calm - N/A   Clear
11:53 PM 26.1 °F - 24.1 °F 92% 30.00 in 9.0 mi Calm Calm - N/A   Clear